NOAA 16 DEB

Satellite information

Favourite Embed

Satellite Type and Status

DEBRISIN ORBIT

Key statistics

Satellite NOAA 16 DEB at a glance.

Uptime

9164

Days in orbit

Revolutions

≈ 14.3

Per day

Orbit

SSO

Sun Synchronous Orbit

Inclination

98.8

Latest

Satellite identification and parameters

Extended collection of information and parameters for NOAA 16 DEB.

Object identification

Identified? True

Debris? True

Object name: NOAA 16 DEB

International designator: 2000-055JW

Object number (NORAD): 41377

Object ID (CCSDS): 41377

Country: UNITED STATES OF AMERICA (US)

Current information (Y/N): Y

RCS size: SMALL

Orbital parameters

Period: 100.734 minutes

Inclination: 98.8235 deg

SMA: 7171.533 km

Apoapsis: 807.12 km

Periapsis: 779.676 km

RAAN: 33.9285 deg

Eccentricy: 0.00191338

Argument of periapsis: 347.7455 deg

Mean anomaly: 12.3259 deg

Mean motion: 14.29502042 rev/day

Mean motion (dot): 0.0000648 rev/day2

B* drag term: 0.0025471878 1/REarth

Two-line elements (TLE)

Creation date: Oct. 18, 2025, 2:17 a.m.

Reference frame: TEME

Reference center: EARTH

Epoch: Oct. 17, 2025, 12:39 p.m. UTC

TLE line 0: 0 NOAA 16 DEB

TLE line 1: 1 41377U 00055JW 25290.52728155 .00006480 00000-0 25472-2 0 9995

TLE line 2: 2 41377 98.8235 33.9285 0019134 347.7455 12.3259 14.29502042504912

Live tracking on map

Real-time ground track for satellite NOAA 16 DEB.

In-orbit conjunctions

A list of the most updated potential collisions computed for object NOAA 16 DEB.

Target Orbit TCA Probability of collision Miss distance Type
SL-8 R/B LEO 2025-09-28 02:57:08 0.0001050735 232.0 (m) ROCKET BODY
CZ-6A DEB LEO 2025-01-31 20:22:04 0.0001225265 818.0 (m) DEBRIS

Associated space launch

The NOAA K, L and M POES satellites begin the fifth generation of improved environmental monitoring in support of NOAA missions. The instrument payload has significant improvements and additions/deletions. The instrument changes have effected the spacecraft subsystems and data formats.

NOAA 16 DEB was lifted into orbit during the mission ‘Titan II SLV | NOAA 16’, on board a Titan II SLV space rocket.

The launch took place on Sept. 21, 2000, 10:22 a.m. from Space Launch Complex 4W.

For more information about the launch, click the button.

Launch to space Titan II SLV | NOAA 16
Titan II SLV | NOAA 16

Agency: N/A

Status: Launch Successful

Launch date: Sept. 21, 2000, 10:22 a.m. UTC

Rocket: Titan II SLV

Launch pad: Space Launch Complex 4W

Location: Vandenberg SFB, CA, USA

...

Latest news about this satellite

There are no fresh news available about this satellite. Check back as we update our databases every day.


Newsletter sign-up

Weekly statistics, charts and insights to help you stay on top of the space industry.